GW3006 Weather Reports


time (UTC)temp
C
wind
direction
speed
KPH
gust
KPH
rain 1hr
cm
rain 24hr
cm
rain mn
cm
humidity
%
barometer
mb
20260507113624 16 343 0.0 3.2 0.00 0.00 0.00 59 1013.0
20260507112704 15 0 0.0 0.0 0.00 0.00 0.00 60 1012.9
20260507111803 15 23 0.0 3.2 0.00 0.00 0.00 62 1013.2
20260507110903 14 13 0.0 6.4 0.00 0.00 0.00 64 1013.2
20260507110003 15 0 0.0 0.0 0.00 0.00 0.00 63 1013.2
20260507105403 15 0 0.0 0.0 0.00 0.00 0.00 64 1013.1
20260507104504 15 163 0.0 3.2 0.00 0.00 0.00 65 1013.5
20260507103624 15 262 0.0 1.6 0.00 0.00 0.00 64 1013.4
20260507102703 15 324 0.0 1.6 0.00 0.00 0.00 64 1013.5
20260507101803 14 0 0.0 0.0 0.00 0.00 0.00 66 1013.1
20260507100903 14 283 0.0 1.6 0.00 0.00 0.00 67 1013.5
20260507100003 14 0 0.0 0.0 0.00 0.00 0.00 67 1013.4
20260507095403 14 134 0.0 1.6 0.00 0.00 0.00 68 1013.2
20260507094525 14 163 0.0 3.2 0.00 0.00 0.00 67 1013.1
20260507093603 14 164 0.0 4.8 0.00 0.00 0.00 65 1013.4
20260507092703 14 160 1.6 11.3 0.00 0.00 0.00 66 1012.9
20260507091803 15 166 1.6 6.4 0.00 0.00 0.00 65 1013.0
20260507090924 16 197 1.6 4.8 0.00 0.00 0.00 63 1013.0
20260507090005 16 160 0.0 4.8 0.00 0.00 0.00 65 1013.2
20260507085403 15 162 1.6 9.7 0.00 0.00 0.00 68 1013.1
20260507084503 15 175 1.6 6.4 0.00 0.00 0.00 70 1013.0
20260507083603 15 138 1.6 6.4 0.00 0.00 0.00 69 1012.7
20260507082724 15 162 1.6 6.4 0.00 0.00 0.00 72 1012.9
20260507081803 13 163 1.6 4.8 0.00 0.00 0.00 77 1013.1
20260507080903 12 164 1.6 6.4 0.00 0.00 0.00 80 1013.0
20260507080003 12 0 0.0 0.0 0.00 0.00 0.00 83 1012.9
20260507075403 11 0 0.0 0.0 0.00 0.00 0.00 84 1013.0
20260507074524 11 0 0.0 0.0 0.00 0.00 0.00 85 1012.8
20260507073603 11 0 0.0 0.0 0.00 0.00 0.00 86 1012.8
20260507072703 11 153 0.0 3.2 0.00 0.00 0.00 87 1012.9
20260507071803 10 129 0.0 1.6 0.00 0.00 0.00 88 1012.5
20260507070903 10 0 0.0 0.0 0.00 0.00 0.00 88 1012.4
20260507070005 10 0 0.0 0.0 0.00 0.00 0.00 89 1012.4
20260507065403 10 0 0.0 0.0 0.00 0.00 0.00 90 1012.7
20260507064503 10 0 0.0 0.0 0.00 0.00 0.00 90 1012.7
20260507063603 9 0 0.0 0.0 0.00 0.00 0.00 91 1012.6
20260507062703 9 0 0.0 0.0 0.00 0.00 0.00 91 1012.8
20260507061803 9 0 0.0 0.0 0.00 0.00 0.00 92 1012.5
20260507060903 8 0 0.0 0.0 0.00 0.00 0.00 93 1012.4
20260507060024 8 0 0.0 0.0 0.00 0.00 0.00 94 1012.3
20260507055424 8 0 0.0 0.0 0.00 0.00 0.00 95 1012.2
20260507054503 8 0 0.0 0.0 0.00 0.00 0.00 96 1012.0
20260507053603 8 0 0.0 0.0 0.00 0.00 0.00 96 1012.1
20260507052703 8 0 0.0 0.0 0.00 0.00 0.00 97 1012.2
20260507051803 8 0 0.0 0.0 0.00 0.00 0.00 97 1011.9
20260507050903 7 0 0.0 0.0 0.00 0.00 0.00 97 1011.8
20260507050003 7 0 0.0 0.0 0.00 0.00 0.00 97 1011.8
20260507045403 7 0 0.0 0.0 0.00 0.00 0.00 97 1011.8
20260507044503 7 0 0.0 0.0 0.00 0.00 0.00 97 1011.7
20260507043603 7 0 0.0 0.0 0.00 0.00 0.00 97 1011.7
20260507042703 7 0 0.0 0.0 0.00 0.00 0.00 97 1011.6
20260507041804 7 0 0.0 0.0 0.00 0.00 0.00 97 1011.6
20260507040903 7 0 0.0 0.0 0.00 0.00 0.00 97 1011.6
20260507040004 7 359 0.0 1.6 0.00 0.00 0.00 97 1011.2
20260507035403 7 353 0.0 3.2 0.00 0.00 0.00 97 1011.2
20260507034505 7 0 0.0 0.0 0.00 0.00 0.00 97 1010.9
20260507033603 7 0 0.0 0.0 0.00 0.00 0.00 97 1011.1
20260507032725 7 0 0.0 0.0 0.00 0.00 0.00 98 1010.7
20260507031803 7 0 0.0 0.0 0.00 0.00 0.00 97 1010.8
20260507030903 7 0 0.0 0.0 0.00 0.00 0.00 97 1010.7
20260507030005 7 0 0.0 0.0 0.00 0.00 0.00 97 1010.8
20260507025403 7 0 0.0 0.0 0.00 0.00 0.00 97 1010.8
20260507024525 7 0 0.0 0.0 0.00 0.00 0.00 97 1010.8
20260507023624 6 0 0.0 0.0 0.00 0.00 0.00 98 1010.7
20260507022703 7 0 0.0 0.0 0.00 0.00 0.00 97 1010.9
20260507021804 7 0 0.0 0.0 0.00 0.00 0.00 98 1010.9
20260507020903 6 0 0.0 0.0 0.00 0.00 0.00 97 1010.8
20260507020003 6 0 0.0 0.0 0.00 0.00 0.00 97 1010.7
20260507015403 6 0 0.0 0.0 0.00 0.00 0.00 97 1010.5
20260507014503 6 0 0.0 0.0 0.00 0.00 0.00 97 1010.6
20260507013603 6 0 0.0 0.0 0.00 0.00 0.00 97 1010.7
20260507012703 6 0 0.0 0.0 0.00 0.00 0.00 97 1010.5
20260507011805 6 0 0.0 0.0 0.00 0.00 0.00 97 1010.5
20260507010903 6 0 0.0 0.0 0.00 0.00 0.00 97 1010.6
20260507010005 6 0 0.0 0.0 0.00 0.00 0.00 97 1010.7
20260507005403 6 0 0.0 0.0 0.00 0.00 0.00 97 1010.5
20260507004524 6 0 0.0 0.0 0.00 0.00 0.00 96 1010.6
20260507003603 6 0 0.0 0.0 0.00 0.00 0.00 96 1010.4
20260507002703 7 0 0.0 0.0 0.00 0.00 0.00 96 1010.5
20260507001803 6 0 0.0 0.0 0.00 0.00 0.00 96 1010.4
20260507000926 7 0 0.0 0.0 0.00 0.00 0.00 96 1010.1
20260507000003 7 0 0.0 0.0 0.00 0.00 0.00 95 1010.3
20260506235403 7 0 0.0 0.0 0.00 0.00 0.00 95 1010.6
20260506234503 7 0 0.0 0.0 0.00 0.00 0.00 95 1010.4
20260506233603 7 0 0.0 0.0 0.00 0.00 0.00 94 1010.3
20260506232705 7 0 0.0 0.0 0.00 0.00 0.00 94 1010.3
20260506231803 7 0 0.0 0.0 0.00 0.00 0.00 93 1010.2
20260506230903 8 0 0.0 0.0 0.00 0.00 0.00 93 1010.4
20260506230003 8 0 0.0 0.0 0.00 0.00 0.00 92 1010.2
20260506225403 8 0 0.0 0.0 0.00 0.00 0.00 92 1010.2
20260506224504 9 0 0.0 0.0 0.00 0.00 0.00 92 1010.0
20260506223603 9 0 0.0 0.0 0.00 0.00 0.00 92 1009.9
20260506222705 9 0 0.0 0.0 0.00 0.00 0.00 91 1009.8
20260506221803 9 0 0.0 0.0 0.00 0.00 0.00 91 1010.1
20260506220903 10 0 0.0 0.0 0.00 0.00 0.00 91 1010.0
20260506220003 10 0 0.0 0.0 0.00 0.00 0.00 91 1010.2
20260506215424 10 0 0.0 0.0 0.00 0.00 0.00 91 1010.0
20260506214503 10 0 0.0 0.0 0.00 0.00 0.00 90 1010.0
20260506213603 10 0 0.0 0.0 0.00 0.00 0.00 90 1009.8
20260506212703 10 0 0.0 0.0 0.00 0.00 0.00 90 1009.8
20260506211824 10 0 0.0 0.0 0.00 0.00 0.00 89 1009.8
20260506210903 10 0 0.0 0.0 0.00 0.00 0.00 90 1009.7
20260506210003 10 0 0.0 0.0 0.00 0.00 0.00 90 1009.5
20260506205403 10 357 0.0 1.6 0.00 0.00 0.00 90 1009.7
20260506204503 10 346 0.0 3.2 0.00 0.00 0.00 89 1009.4
20260506203624 10 345 1.6 3.2 0.00 0.00 0.00 89 1009.7
20260506202703 10 344 1.6 3.2 0.00 0.00 0.00 89 1009.7
20260506201803 10 2 1.6 4.8 0.00 0.00 0.00 89 1009.4
20260506200903 10 352 1.6 3.2 0.00 0.00 0.00 88 1009.4
20260506200003 10 360 1.6 4.8 0.00 0.00 0.00 88 1009.3
20260506195403 11 357 1.6 3.2 0.00 0.00 0.00 88 1009.2
20260506194524 11 357 1.6 11.3 0.00 0.00 0.00 87 1009.3
20260506193603 11 359 3.2 11.3 0.00 0.00 0.00 86 1009.1
20260506192703 11 9 3.2 9.7 0.00 0.00 0.00 86 1009.1
20260506191803 11 357 3.2 4.8 0.00 0.00 0.00 85 1008.7
20260506190903 11 1 4.8 9.7 0.00 0.00 0.00 85 1008.9
20260506190024 11 3 4.8 12.9 0.00 0.00 0.00 84 1009.0
20260506185406 11 2 4.8 12.9 0.00 0.00 0.00 84 1008.5
20260506184503 11 358 6.4 12.9 0.00 0.00 0.00 83 1008.7
20260506183604 12 9 6.4 16.1 0.00 0.00 0.00 82 1008.6
20260506182725 12 351 4.8 14.5 0.00 0.00 0.00 81 1008.6
20260506181804 12 359 6.4 17.7 0.00 0.00 0.00 81 1008.4
20260506180924 12 359 6.4 14.5 0.00 0.00 0.00 80 1008.2
20260506180004 12 5 8.0 19.3 0.00 0.00 0.00 80 1008.4
20260506175403 12 359 6.4 14.5 0.00 0.00 0.00 80 1008.2
20260506174503 12 359 6.4 14.5 0.00 0.00 0.00 79 1008.0
20260506173603 12 349 6.4 11.3 0.00 0.00 0.00 78 1008.1
20260506172704 12 356 6.4 14.5 0.00 0.00 0.00 78 1008.1
20260506171803 12 352 6.4 16.1 0.00 0.00 0.00 76 1007.9
20260506170903 12 2 6.4 16.1 0.00 0.00 0.00 77 1008.0
20260506170003 12 3 6.4 14.5 0.00 0.00 0.00 78 1007.9
20260506165403 12 355 6.4 12.9 0.00 0.00 0.00 78 1007.9
20260506164525 12 356 6.4 17.7 0.00 0.00 0.00 78 1007.8
20260506163603 13 356 8.0 14.5 0.00 0.00 0.00 77 1007.8
20260506162703 13 1 8.0 22.5 0.00 0.00 0.00 76 1007.6
20260506161803 13 1 8.0 22.5 0.00 0.00 0.00 75 1007.4
20260506160903 13 357 8.0 16.1 0.00 0.00 0.00 73 1007.6
20260506160024 13 352 8.0 19.3 0.00 0.00 0.00 72 1007.6
20260506155424 13 358 8.0 22.5 0.00 0.00 0.00 71 1007.6
20260506154503 13 352 8.0 17.7 0.00 0.00 0.00 71 1007.4
20260506153603 13 355 9.7 17.7 0.00 0.00 0.00 74 1007.6
20260506152703 13 357 8.0 19.3 0.00 0.00 0.00 75 1007.6
20260506151803 13 356 8.0 17.7 0.00 0.00 0.00 75 1007.6
20260506150903 13 352 8.0 17.7 0.00 0.00 0.00 75 1007.5
20260506150003 13 348 8.0 14.5 0.00 0.00 0.00 73 1007.5
20260506145424 13 352 8.0 16.1 0.00 0.00 0.00 73 1007.5
20260506144524 13 358 8.0 14.5 0.00 0.00 0.00 73 1007.6
20260506143603 13 6 9.7 17.7 0.00 0.00 0.00 73 1007.4
20260506142703 13 359 8.0 17.7 0.00 0.00 0.00 74 1007.5
20260506141803 14 360 8.0 17.7 0.00 0.00 0.00 72 1007.2
20260506140903 14 359 8.0 16.1 0.00 0.00 0.00 72 1007.3
20260506140003 13 3 8.0 22.5 0.00 0.00 0.00 72 1007.2
20260506135403 14 4 6.4 16.1 0.00 0.00 0.00 70 1007.2
20260506134503 14 7 8.0 22.5 0.00 0.00 0.00 70 1007.1
20260506133603 13 350 6.4 16.1 0.00 0.00 0.00 70 1007.2
20260506132703 13 360 8.0 17.7 0.00 0.00 0.00 71 1007.2
20260506131803 14 353 6.4 16.1 0.00 0.00 0.00 70 1007.3
20260506130903 13 357 6.4 16.1 0.00 0.00 0.00 72 1007.2
20260506130005 14 348 8.0 16.1 0.00 0.00 0.00 69 1007.1
20260506125424 13 355 6.4 16.1 0.00 0.00 0.00 72 1007.2
20260506124503 13 355 6.4 12.9 0.00 0.00 0.00 75 1007.2
20260506123603 13 1 6.4 14.5 0.00 0.00 0.00 75 1007.0
20260506122704 13 5 6.4 17.7 0.00 0.00 0.00 77 1007.1
20260506121824 13 358 8.0 16.1 0.00 0.00 0.00 77 1007.2
20260506120903 13 347 8.0 14.5 0.00 0.00 0.00 78 1007.1
20260506120003 12 349 6.4 17.7 0.00 0.00 0.00 79 1007.0
20260506115403 13 1 6.4 17.7 0.00 0.00 0.00 79 1007.0
20260506114503 12 345 6.4 14.5 0.00 0.00 0.00 79 1007.1